FW2552 Weather Reports


time (UTC)temp
C
wind
direction
speed
KPH
gust
KPH
rain 1hr
cm
rain 24hr
cm
rain mn
cm
humidity
%
barometer
mb
20260505041703 20 139 14.5 22.5 0.00 0.00 0.00 59 1007.8
20260505041203 20 127 9.7 24.1 0.00 0.00 0.00 58 1008.0
20260505040704 20 117 9.7 24.1 0.00 0.00 0.00 58 1008.0
20260505040203 20 106 6.4 22.5 0.00 0.00 0.00 57 1007.9
20260505035203 20 66 9.7 20.9 0.00 0.00 0.00 56 1008.0
20260505034704 20 157 11.3 27.4 0.00 0.00 0.00 56 1008.1
20260505033703 20 192 20.9 35.4 0.00 0.00 0.00 55 1008.0
20260505033204 21 145 14.5 33.8 0.00 0.00 0.00 55 1008.1
20260505032204 21 134 14.5 32.2 0.00 0.00 0.00 54 1008.2
20260505031704 21 148 9.7 27.4 0.00 0.00 0.00 54 1008.2
20260505030703 21 159 16.1 20.9 0.00 0.00 0.00 53 1008.4
20260505030204 21 40 6.4 20.9 0.00 0.00 0.00 53 1008.2
20260505025703 21 146 11.3 20.9 0.00 0.00 0.00 52 1008.2
20260505025203 21 149 14.5 19.3 0.00 0.00 0.00 52 1008.3
20260505024204 21 138 11.3 25.7 0.00 0.00 0.00 51 1008.1
20260505023204 21 117 8.0 25.7 0.00 0.00 0.00 51 1007.8
20260505022704 21 238 11.3 29.0 0.00 0.00 0.00 50 1008.0
20260505022203 21 172 4.8 19.3 0.00 0.00 0.00 50 1007.7
20260505021704 22 38 6.4 25.7 0.00 0.00 0.00 50 1007.8
20260505020703 22 116 9.7 22.5 0.00 0.00 0.00 50 1007.5
20260505020204 22 108 8.0 24.1 0.00 0.00 0.00 49 1007.6
20260505015704 22 118 9.7 24.1 0.00 0.00 0.00 48 1007.5
20260505015204 22 124 14.5 24.1 0.00 0.00 0.00 48 1007.4
20260505014703 22 117 9.7 20.9 0.00 0.00 0.00 48 1007.4
20260505014203 22 318 9.7 24.1 0.00 0.00 0.00 47 1007.3
20260505013704 22 123 8.0 24.1 0.00 0.00 0.00 46 1007.4
20260505012703 23 216 4.8 14.5 0.00 0.00 0.00 45 1007.3
20260505012204 23 274 8.0 20.9 0.00 0.00 0.00 45 1007.2
20260505011704 23 227 8.0 16.1 0.00 0.00 0.00 45 1007.2
20260505011203 23 83 6.4 16.1 0.00 0.00 0.00 44 1007.1
20260505010703 23 355 8.0 16.1 0.00 0.00 0.00 45 1007.2
20260505010203 23 179 6.4 29.0 0.00 0.00 0.00 44 1007.0
20260505005704 23 133 8.0 29.0 0.00 0.00 0.00 44 1006.8
20260505005203 23 115 6.4 20.9 0.00 0.00 0.00 44 1007.0
20260505004704 23 151 9.7 29.0 0.00 0.00 0.00 44 1006.9
20260505004203 24 134 8.0 32.2 0.00 0.00 0.00 44 1006.9
20260505003704 24 148 17.7 32.2 0.00 0.00 0.00 44 1007.0
20260505003204 24 119 14.5 27.4 0.00 0.00 0.00 44 1007.0
20260505002703 24 109 8.0 20.9 0.00 0.00 0.00 44 1007.0
20260505002204 25 127 9.7 22.5 0.00 0.00 0.00 43 1007.3
20260505001703 25 56 3.2 20.9 0.00 0.00 0.00 42 1007.1
20260505001203 25 237 8.0 27.4 0.00 0.00 0.00 42 1007.1
20260504235703 25 319 9.7 24.1 0.00 0.00 0.00 42 1007.3
20260504235204 25 191 3.2 22.5 0.00 0.00 0.00 42 1007.3
20260504234703 25 76 6.4 20.9 0.00 0.00 0.00 41 1007.3
20260504233204 26 120 8.0 33.8 0.00 0.00 0.00 39 1007.4
20260504232703 26 124 12.9 29.0 0.00 0.00 0.00 39 1007.6
20260504232204 26 193 11.3 19.3 0.00 0.00 0.00 39 1007.5
20260504231704 26 181 11.3 29.0 0.00 0.00 0.00 38 1007.7
20260504231203 26 80 6.4 33.8 0.00 0.00 0.00 39 1007.6
20260504230704 26 211 8.0 33.8 0.00 0.00 0.00 38 1007.7
20260504230204 26 173 3.2 29.0 0.00 0.00 0.00 38 1007.7
20260504225703 26 145 17.7 29.0 0.00 0.00 0.00 39 1007.6
20260504225204 26 38 9.7 20.9 0.00 0.00 0.00 39 1007.5
20260504224203 26 175 9.7 35.4 0.00 0.00 0.00 39 1007.9
20260504223704 27 136 8.0 38.6 0.00 0.00 0.00 39 1007.8
20260504223203 27 176 19.3 38.6 0.00 0.00 0.00 37 1007.7
20260504222703 27 290 12.9 27.4 0.00 0.00 0.00 38 1007.9
20260504221703 27 286 14.5 33.8 0.00 0.00 0.00 37 1008.0
20260504221204 27 125 6.4 32.2 0.00 0.00 0.00 36 1007.9
20260504220703 27 96 4.8 24.1 0.00 0.00 0.00 38 1008.0
20260504220203 27 240 11.3 32.2 0.00 0.00 0.00 37 1007.9
20260504215203 27 150 8.0 33.8 0.00 0.00 0.00 38 1008.1
20260504214704 27 162 14.5 35.4 0.00 0.00 0.00 38 1007.9
20260504214203 27 178 9.7 49.9 0.00 0.00 0.00 37 1008.0
20260504213703 27 171 8.0 49.9 0.00 0.00 0.00 38 1008.0
20260504212703 27 84 9.7 35.4 0.00 0.00 0.00 37 1008.1
20260504212204 27 184 9.7 25.7 0.00 0.00 0.00 36 1007.9
20260504211703 27 196 11.3 40.2 0.00 0.00 0.00 38 1007.9
20260504211204 27 148 12.9 46.7 0.00 0.00 0.00 36 1008.0
20260504210704 27 30 9.7 35.4 0.00 0.00 0.00 36 1008.1
20260504210204 27 323 12.9 38.6 0.00 0.00 0.00 36 1008.0
20260504205703 27 301 14.5 40.2 0.00 0.00 0.00 38 1008.1
20260504205204 27 144 9.7 40.2 0.00 0.00 0.00 37 1008.2
20260504204703 27 181 11.3 37.0 0.00 0.00 0.00 37 1008.2
20260504204203 27 138 11.3 37.0 0.00 0.00 0.00 35 1008.2
20260504203704 27 291 14.5 48.3 0.00 0.00 0.00 36 1008.5
20260504203203 27 110 14.5 40.2 0.00 0.00 0.00 35 1008.6
20260504202703 27 187 12.9 35.4 0.00 0.00 0.00 38 1008.5
20260504201704 27 170 19.3 40.2 0.00 0.00 0.00 37 1008.5
20260504201203 27 203 14.5 53.1 0.00 0.00 0.00 37 1008.6
20260504200703 27 259 9.7 33.8 0.00 0.00 0.00 39 1008.5
20260504200204 27 315 4.8 38.6 0.00 0.00 0.00 38 1008.5
20260504195703 27 173 17.7 38.6 0.00 0.00 0.00 37 1008.6
20260504195204 27 275 9.7 37.0 0.00 0.00 0.00 37 1008.6
20260504194204 27 139 14.5 40.2 0.00 0.00 0.00 39 1008.7
20260504193703 26 135 11.3 46.7 0.00 0.00 0.00 39 1008.8
20260504192703 27 209 14.5 29.0 0.00 0.00 0.00 39 1009.1
20260504191203 27 158 16.1 33.8 0.00 0.00 0.00 38 1009.3
20260504190704 26 339 8.0 33.8 0.00 0.00 0.00 40 1009.3
20260504190203 26 164 14.5 38.6 0.00 0.00 0.00 38 1009.3
20260504185704 26 166 11.3 38.6 0.00 0.00 0.00 39 1009.3
20260504185204 26 187 14.5 38.6 0.00 0.00 0.00 38 1009.4
20260504184703 26 241 16.1 38.6 0.00 0.00 0.00 39 1009.3
20260504184204 26 164 11.3 38.6 0.00 0.00 0.00 40 1009.4
20260504183703 25 148 16.1 32.2 0.00 0.00 0.00 39 1009.0
20260504183204 25 119 6.4 33.8 0.00 0.00 0.00 41 1009.1
20260504182204 25 265 8.0 32.2 0.00 0.00 0.00 41 1009.2
20260504181703 25 207 4.8 33.8 0.00 0.00 0.00 40 1009.4
20260504181203 25 151 14.5 35.4 0.00 0.00 0.00 41 1009.3
20260504180704 25 277 19.3 40.2 0.00 0.00 0.00 39 1009.3
20260504175703 25 255 16.1 40.2 0.00 0.00 0.00 39 1009.4
20260504175203 25 285 19.3 35.4 0.00 0.00 0.00 40 1009.3
20260504174703 26 19 12.9 35.4 0.00 0.00 0.00 39 1009.4
20260504174203 26 150 14.5 32.2 0.00 0.00 0.00 41 1009.1
20260504173703 25 133 8.0 32.2 0.00 0.00 0.00 40 1009.1
20260504173203 25 333 8.0 40.2 0.00 0.00 0.00 39 1009.2
20260504172703 25 158 11.3 40.2 0.00 0.00 0.00 40 1009.3
20260504172203 25 304 9.7 38.6 0.00 0.00 0.00 41 1009.3
20260504171703 25 163 20.9 51.5 0.00 0.00 0.00 40 1009.1
20260504171204 25 247 11.3 51.5 0.00 0.00 0.00 39 1009.2
20260504170703 25 340 14.5 38.6 0.00 0.00 0.00 39 1009.2
20260504170204 25 36 11.3 41.8 0.00 0.00 0.00 41 1008.9
20260504160203 23 296 16.1 45.1 0.00 0.00 0.00 41 1009.3
20260504150704 21 285 14.5 33.8 0.00 0.00 0.00 46 1009.4
20260504150204 21 51 4.8 38.6 0.00 0.00 0.00 47 1009.4
20260504141204 20 271 11.3 35.4 0.00 0.00 0.00 48 1009.8
20260504130703 18 257 8.0 25.7 0.00 0.00 0.00 50 1009.8
20260504130203 18 138 9.7 22.5 0.00 0.00 0.00 51 1009.6
20260504120204 16 282 9.7 19.3 0.00 0.00 0.00 53 1009.6
20260504110703 17 175 4.8 32.2 0.00 0.00 0.00 53 1009.5
20260504110203 17 13 6.4 20.9 0.00 0.00 0.00 53 1009.6
20260504100203 17 150 4.8 19.3 0.00 0.00 0.00 52 1010.1
20260504081704 17 147 11.3 25.7 0.00 0.00 0.00 53 1010.2
20260504081203 17 175 8.0 27.4 0.00 0.00 0.00 53 1010.3
20260504080703 17 262 9.7 27.4 0.00 0.00 0.00 52 1010.2
20260504080204 17 222 9.7 25.7 0.00 0.00 0.00 53 1010.5
20260504070204 18 44 9.7 20.9 0.00 0.00 0.00 50 1010.8
20260504060203 18 141 8.0 22.5 0.00 0.00 0.00 50 1011.3
20260504050703 18 87 14.5 29.0 0.00 0.00 0.00 50 1011.5
20260504050203 18 140 16.1 37.0 0.00 0.00 0.00 50 1011.7
20260504045704 18 152 14.5 37.0 0.00 0.00 0.00 50 1011.6
20260504045203 18 151 14.5 35.4 0.00 0.00 0.00 49 1011.9
20260504044703 18 178 16.1 35.4 0.00 0.00 0.00 49 1011.8
20260504044204 18 144 19.3 33.8 0.00 0.00 0.00 49 1012.0
20260504043703 18 121 9.7 33.8 0.00 0.00 0.00 49 1011.8
20260504043204 18 106 12.9 24.1 0.00 0.00 0.00 48 1012.1
20260504042703 18 131 9.7 33.8 0.00 0.00 0.00 48 1011.8